Date,TemperatureHighF,TemperatureAvgF,TemperatureLowF,DewpointHighF,DewpointAvgF,DewpointLowF,HumidityHigh,HumidityAvg,HumidityLow,PressureMaxIn,PressureMinIn,WindSpeedMaxMPH,WindSpeedAvgMPH,GustSpeedMaxMPH,PrecipitationSumIn
2013-1-1,101.4,80.7,69.2,72.2,66.2,57.3,85,65,25,29.88,29.70,15,2,17,0.00
2013-1-2,76.8,72.1,68.9,69.4,64.8,60.6,92,78,65,30.05,29.72,19,6,22,0.00
2013-1-3,79.6,72.4,68.0,64.7,61.9,58.4,80,70,56,30.07,29.98,11,3,13,0.00
2013-1-4,83.2,74.8,64.8,67.4,64.1,61.2,89,71,51,30.02,29.90,9,1,12,0.00
2013-1-5,94.5,78.2,64.0,70.9,66.0,60.9,92,69,35,30.02,29.91,9,1,0,0.00
2013-1-6,85.2,76.2,68.1,70.0,67.2,64.7,91,75,55,30.17,30.01,10,1,13,0.00
2013-1-7,83.7,77.1,71.5,70.3,67.7,64.5,87,74,60,30.18,29.94,12,2,14,0.00
2013-1-8,105.1,87.8,67.3,65.7,59.7,51.1,88,47,19,29.92,29.41,21,5,26,0.00
2013-1-9,89.4,76.6,70.3,65.8,59.7,51.5,75,59,29,29.72,29.30,22,6,25,0.00
2013-1-10,78.7,73.3,70.3,64.7,62.4,58.9,80,69,60,29.85,29.71,8,1,13,0.00
2013-1-11,95.0,80.7,66.1,74.2,68.5,63.4,92,68,49,29.85,29.63,9,1,0,0.00
2013-1-12,110.0,85.0,72.9,71.5,68.3,62.1,86,63,22,29.88,29.64,16,4,20,0.02
2013-1-13,83.0,74.3,67.1,71.6,68.3,65.3,95,82,66,29.88,29.66,17,4,19,0.13
2013-1-14,72.5,68.5,64.3,66.6,60.0,54.0,95,75,56,30.12,29.80,25,7,26,0.15
2013-1-15,80.0,72.0,65.1,65.2,61.1,57.5,85,69,48,30.11,29.97,12,1,14,0.02
2013-1-16,86.3,74.9,61.4,68.6,63.8,59.5,94,71,43,29.97,29.82,7,0,0,0.00
2013-1-17,89.0,79.3,70.5,73.1,70.4,67.5,95,75,58,29.88,29.67,7,1,0,0.00
2013-1-18,113.2,90.1,72.0,75.9,68.2,61.5,92,58,20,29.69,29.44,26,2,26,0.17
2013-1-19,75.4,72.4,66.3,68.0,64.3,57.4,94,76,63,29.99,29.71,22,6,27,0.05
2013-1-20,70.0,68.4,67.0,68.8,67.1,64.6,97,96,92,30.02,29.94,9,1,0,0.83
2013-1-21,82.3,74.4,68.2,70.5,68.7,67.3,97,83,64,29.99,29.87,9,1,13,0.00
2013-1-22,91.2,76.7,66.9,74.3,69.5,65.4,96,80,52,29.86,29.72,8,1,0,0.06
2013-1-23,76.0,72.8,70.6,69.7,67.9,66.7,92,85,76,30.01,29.84,19,6,26,0.01
2013-1-24,79.8,73.7,68.1,72.1,69.2,66.0,94,86,75,30.03,29.91,17,4,17,0.06
2013-1-25,86.5,77.8,68.9,75.1,71.9,67.7,97,83,65,29.94,29.78,11,1,0,0.00
2013-1-26,89.0,78.7,72.1,76.8,72.2,69.8,94,81,56,29.88,29.79,9,1,14,0.17
2013-1-27,75.5,72.4,69.6,72.6,70.6,68.3,98,94,86,29.82,29.74,6,0,0,1.41
2013-1-28,71.0,70.0,68.0,70.4,69.4,67.4,98,98,97,29.79,29.62,11,1,15,4.65
2013-1-29,84.4,73.3,68.7,75.4,69.7,65.7,99,89,67,29.81,29.52,20,2,23,0.24
2013-1-30,77.3,72.5,69.3,69.6,67.8,66.1,94,85,74,29.97,29.82,12,3,15,0.00
2013-1-31,87.3,77.8,69.7,74.4,71.2,67.9,95,81,64,29.96,29.71,9,0,0,0.00